OBJECT C, 62727

Orbit data source: Space-Track

You're viewing an Uncataloged Satellite

Recently launched and/or uncataloged satellites may have evolving metadata. Metadata may include but not limited to: Owner, Maufacturer, Bus, Motor, and Mission.

OBJECT C, 62727 is a Chinese satellite in SSO that was launched on Fri, 17 Jan 2025 UTC via a CHANG ZHENG 2D launch vehicle from the Jiuquan Satellite Launch Center, China (JSC). Unknown objects in Earth's orbit typically refer to objects detected orbiting the Earth but have not yet been identified or cataloged. These objects could be anything from previously untracked satellites, spent rocket stages, debris from satellite collisions, or even natural meteoroids temporarily captured by Earth's gravity.

Loading next visibility...
Identifier
62727, 2025-012C
Orbit
SSO
Last TLE update
3 hours ago
Origin
Flag of CNHANGZ (CN / PRC)
Manufacturer
Shikong Daoyu
Mission
Operational Civil Imaging
Bus & Motor
LANTAN, Unknown motor
Mass
66 kg wet, 66 kg dry
Launch date (UTC)
2025-01-17 (6 months ago)
Launch vehicle
CHANG ZHENG 2D
Launch site
Jiuquan Satellite Launch Center, China (JSC)
Object type
Unknown
Shape & HBR
Box + 2 Pan, 1.0 m
Radar Cross Section
0.583 m², Large (>1 m²)

Expand to show TLE details & history

TLE from 3 hours ago
0 OBJECT C
1 62727U 25012C   25199.85865584  .00006816  00000-0  32832-3 0  9991
2 62727  97.4620 273.1659 0008440   6.7899 353.3448 15.19036221 27663
Epoch: 2025-07-18T20:36Z
TLE epoch observation values (Epoch: 2025-07-18T20:36:27.864Z)
Latitude
-0.00006°
Longitude
27.14573°
Altitude
506.065 km
Speed
7.614 km/s
True Right ascension
18h 12m 39s
True Declination
0° 00' 00"
Sunlit
Object was in full shadow at epoch
Visualization orbit readout
Latitude
-9.87164°
Longitude
28.57287°
Altitude
508.054 km
Speed
7.612 km/s
Apparent Right ascension
20h 46m 02s
Apparent Declination
-32° 46' 59"
Sunlit
Object is in full shadow
Visualization observer readout
Local Sidereal Time
12:31:13
Azimuth
99.413° ESE
Elevation
-44.848°
Doppler factor
1
Orbital elements
Apogee altitude
511.532 km
Perigee altitude
499.912 km
Semi-major axis
6,883.859 km
Eccentricity
0.00084
Inclination
97.462°
RAAN
273.1659°
Arg. of periapsis
6.7899°
True anomaly
353.33358°
Mean anomaly
353.3448°
Eccentric anomaly
353.33919°
Mean motion
3.8001 °/min
Orbital period
94.73 mins
BSTAR
0.00032832
Loading maneuver chart data...
Loading SW <> Apogee altitude chart data...
Loading historical data...
Loading historical data...
Loading historical data...
Loading historical data...
Loading historical data...
Loading historical data...
Loading historical data...
Other satellites on launch #12 in the year 2025 (2025-01-17 UTC)
|